Time,TemperatureF,DewpointF,PressureIn,WindDirection,WindDirectionDegrees,WindSpeedMPH,WindSpeedGustMPH,Humidity,HourlyPrecipIn,Conditions,Clouds,dailyrainin,SolarRadiationWatts/m^2,SoftwareType,DateUTC
2014-11-26 00:01:00,32.3,27.4,29.58,NE,44,0.0,0.0,82,0.00,,,0.00,0,WeatherCatV2.00B4475,2014-11-26 05:01:00,
2014-11-26 00:06:00,32.3,27.4,29.57,NE,44,0.0,0.0,82,0.00,,,0.00,0,WeatherCatV2.00B4475,2014-11-26 05:06:00,
2014-11-26 00:11:00,32.3,27.7,29.58,NE,44,0.0,0.0,83,0.00,,,0.00,0,WeatherCatV2.00B4475,2014-11-26 05:11:00,
2014-11-26 00:16:00,32.3,27.7,29.58,NE,44,0.0,1.0,83,0.00,,,0.00,0,WeatherCatV2.00B4475,2014-11-26 05:16:00,
2014-11-26 00:21:00,32.3,27.4,29.58,NE,45,0.0,1.0,82,0.00,,,0.00,0,WeatherCatV2.00B4475,2014-11-26 05:21:00,
2014-11-26 00:26:00,32.3,27.7,29.59,NE,45,0.0,0.0,83,0.00,,,0.00,0,WeatherCatV2.00B4475,2014-11-26 05:26:00,
2014-11-26 00:31:00,32.3,27.7,29.59,West,260,0.0,1.0,83,0.00,,,0.00,0,WeatherCatV2.00B4475,2014-11-26 05:31:00,
2014-11-26 00:36:00,32.4,27.8,29.59,SSE,148,0.0,0.0,83,0.00,,,0.00,0,WeatherCatV2.00B4475,2014-11-26 05:36:00,
2014-11-26 00:41:00,32.4,27.8,29.58,SW,225,0.0,0.0,83,0.00,,,0.00,0,WeatherCatV2.00B4475,2014-11-26 05:41:00,
2014-11-26 00:46:00,32.5,27.9,29.59,SW,225,0.0,0.0,83,0.00,,,0.00,0,WeatherCatV2.00B4475,2014-11-26 05:46:00,
2014-11-26 00:51:00,32.5,27.9,29.59,SW,225,0.0,0.0,83,0.00,,,0.00,0,WeatherCatV2.00B4475,2014-11-26 05:51:00,
2014-11-26 00:56:00,32.6,28.3,29.59,SW,225,0.0,0.0,84,0.00,,,0.00,0,WeatherCatV2.00B4475,2014-11-26 05:56:00,
2014-11-26 01:01:00,32.7,28.4,29.58,SW,225,0.0,0.0,84,0.00,,,0.00,0,WeatherCatV2.00B4475,2014-11-26 06:01:00,
2014-11-26 01:06:00,32.9,28.6,29.59,SW,223,0.0,1.0,84,0.00,,,0.00,0,WeatherCatV2.00B4475,2014-11-26 06:06:00,
2014-11-26 01:11:00,33.0,28.7,29.59,SSW,192,0.0,1.0,84,0.00,,,0.00,0,WeatherCatV2.00B4475,2014-11-26 06:11:00,
2014-11-26 01:16:00,33.1,28.8,29.60,SSW,192,0.0,1.0,84,0.00,,,0.00,0,WeatherCatV2.00B4475,2014-11-26 06:16:00,
2014-11-26 01:21:00,33.2,28.6,29.60,SSW,192,1.0,1.0,83,0.00,,,0.00,0,WeatherCatV2.00B4475,2014-11-26 06:21:00,
2014-11-26 01:26:00,33.2,28.6,29.61,SSW,192,0.0,0.0,83,0.00,,,0.00,0,WeatherCatV2.00B4475,2014-11-26 06:26:00,
2014-11-26 01:31:00,33.3,29.0,29.61,SSW,192,0.0,0.0,84,0.00,,,0.00,0,WeatherCatV2.00B4475,2014-11-26 06:31:00,
2014-11-26 01:36:00,33.4,28.8,29.61,SSW,192,0.0,0.0,83,0.00,,,0.00,0,WeatherCatV2.00B4475,2014-11-26 06:36:00,
2014-11-26 01:41:00,33.4,28.8,29.62,SSW,202,0.0,1.0,83,0.00,,,0.00,0,WeatherCatV2.00B4475,2014-11-26 06:41:00,
2014-11-26 01:46:00,33.5,29.2,29.62,SSW,202,0.0,0.0,84,0.00,,,0.00,0,WeatherCatV2.00B4475,2014-11-26 06:46:00,
2014-11-26 01:51:00,33.5,28.9,29.62,SSW,202,0.0,0.0,83,0.00,,,0.00,0,WeatherCatV2.00B4475,2014-11-26 06:51:00,
2014-11-26 01:56:00,33.6,29.0,29.63,SSW,203,0.0,2.0,83,0.00,,,0.00,0,WeatherCatV2.00B4475,2014-11-26 06:56:00,
2014-11-26 02:01:00,33.6,29.0,29.63,SSW,203,0.0,0.0,83,0.00,,,0.00,0,WeatherCatV2.00B4475,2014-11-26 07:01:00,